Regional Weather Roundup
Issued by NWS Wakefield, VA

Home | Current Version | Previous Version | Text Only | Print | Product List | Glossary On
Versions: 1 2 3 4 5 6 7 8 9 10 11 12 13 14 15 16 17 18 19 20 21 22 23 24 25 26 27 28 29 30 31 32 33 34 35 36 37 38 39 40 41 42 43 44 45 46 47 48 49 50
000
ASUS41 KAKQ 041210
RWRAKQ

REGIONAL WEATHER ROUNDUP
NATIONAL WEATHER SERVICE WAKEFIELD VA
700 AM EST WED MAR 04 2015

Note: "fair" indicates few or no clouds below 12,000 feet with no
significant weather and/or obstructions to visibility. * = Denotes
station may not report precipitation (e.g., rain,snow,etc.),
thunder or fog.

VAZ042-051-052>054-056-041300-
NORTHERN VIRGINIA

CITY           SKY/WX    TMP DP  RH WIND       PRES   REMARKS
WASH NATIONAL  LGT RAIN  40  36  86 S3        29.89S
DULLES         CLOUDY    37  35  92 S5        29.88R
FORT BELVOIR   CLOUDY    39  37  94 N1        29.89R FOG
QUANTICO       CLOUDY    37  35  92 SW5       29.89F FOG
FREDERICKSBRG* LGT RAIN  46  46 100 W3        29.88S
STAFFORD*      CLOUDY    40  50 100 CALM      29.92S FOG
WARRENTON      CLOUDY    39  39 100 CALM      29.87S FOG
CULPEPER*      CLOUDY    39  39 100 CALM      29.88S FOG
MANASSAS*      CLOUDY    37  37 100 CALM      29.89S
LEESBURG*      CLOUDY    37  37 100 CALM      29.88R FOG
WINCHESTER     CLOUDY    45  37  76 W6        29.85R
FRONT ROYAL*   CLOUDY    43  41  93 CALM      29.83R VSB 1
LURAY*         FOG       43  43 100 CALM      29.85S VSB 1
$$

VAZ048-049-060>072-079>083-041300-
CENTRAL AND SOUTH CENTRAL VIRGINIA

CITY           SKY/WX    TMP DP  RH WIND       PRES   REMARKS
RICHMOND       CLOUDY    53  50  89 SW8       29.91R
CHESTERFIELD*  CLOUDY    54  41  62 SW8       29.93R
PETERSBURG*    CLOUDY    52  51  97 SW12G20   29.93S FOG
HANOVER        LGT RAIN  52  49  89 W7        29.93R
TAPPAHANNOCK*  FOG       45  42  89 N5        29.94R VSB 1/4
QUINTON*       CLOUDY    47  46  99 SW3       29.93R VSB 1
CHARLOTTSVILLE MOCLDY    38  36  92 CALM      29.86S FOG
GORDONSVILLE*  PTSUNNY   39  37  93 CALM      29.86F
ORANGE*        MOCLDY    39  37  93 CALM      29.88F FOG
LOUISA*        RAIN      45  43  93 S6        29.85F
BUMPASS*       CLOUDY    43  41  92 SW6       29.90F
FARMVILLE*     CLOUDY    51  51 100 SW9G16    29.89S
CREWE*         CLOUDY    51  49  94 SW8       29.91S
FORT PICKETT*  CLOUDY    46  46  97 SW12      29.92S VSB 3/4
CHASE CITY*    CLOUDY    51  51 100 SW6       29.92F
CLARKSVILLE*   CLOUDY    48  48 100 SW9       29.94S
SOUTH HILL*    CLOUDY    49  48  98 SW16G26   30.00R
LAWRENCEVILLE* CLOUDY    50  50 100 SW16G23   29.94R
EMPORIA*       CLOUDY    50  50 100 S10G21    29.97R FOG
$$

VAZ088>098-041300-
SOUTHEAST VIRGINIA

CITY           SKY/WX    TMP DP  RH WIND       PRES   REMARKS
NORFOLK        CLOUDY    51  49  92 SW18G28   29.93S
VIRGINIA BEACH CLOUDY    52  49  89 SW21      29.95R FOG
NORFOLK NAVAL  FOG       52  48  86 SW12G18   29.96S VSB 1
WEST POINT*    CLOUDY    49  46  92 CALM      29.95R VSB 3/4
SALUDA*        CLOUDY    47  46  97 W5        29.93R
NEWPORT NEWS   FOG       48  45  89 SW13      29.94S VSB 3/4
LANGLEY AFB    CLOUDY    47  46  97 SW17      29.93R FOG
FORT EUSTIS    FOG       46 N/A N/A VRB7      29.92R VSB 1
WILLIAMSBURG*  CLOUDY    50  48  93 SW9G17    29.94S VSB 3/4
HR EXEC AP*    CLOUDY    48  46  93 SW13G20   29.98S
FRANKLIN*      FOG       46  46  99 SW8       29.97S VSB 1
WAKEFIELD      FOG       47  46  97 SW8       29.95R VSB 3/4
$$

VAZ020-022-025-037-045-041300-
WEST CENTRAL AND SOUTHWEST VIRGINIA

CITY           SKY/WX    TMP DP  RH WIND       PRES   REMARKS
STAUNTON*      CLOUDY    44  43  96 CALM      29.87F FOG
WAYNESBORO*    CLOUDY    47  46  97 SW3       29.86F
HOT SPRINGS VA DRZL/FOG  44  44 100 W14       29.87R VSB 1/4
LYNCHBURG      CLOUDY    45  45 100 VRB3      29.90F FOG
DANVILLE       FOG       46  44  93 W6        29.93F VSB 3/4
SOUTH BOSTON*  CLOUDY    47  46  95 SW5       29.92F
MARTINSVILLE   CLOUDY    44  44 100 CALM      29.95S FOG
ROANOKE        LGT RAIN  42  41  96 N5        29.92R FOG
BLACKSBURG     RAIN      44  44  99 W3        29.93R
DUBLIN*        DRIZZLE   44  44 100 CALM      29.91S
MARION*        DRIZZLE   49  48  96 SW7       29.93F
HILLSVILLE*    CLOUDY    52  51  96 SE3       29.90F
RICHLANDS*     RAIN      53  51  94 SW13G22   29.90F
WISE*          DRIZZLE   52  52 100 SW16G23   29.90F
ABINGDON*      DRZL/FOG  48  48 100 W3        29.92S VSB 1
$$

MDZ021>025-VAZ099-100-041300-
SOUTHERN MARYLAND AND THE DELMARVA PENINSULA

CITY           SKY/WX    TMP DP  RH WIND       PRES   REMARKS
PATUXENT RIVER CLOUDY    45  42  89 SW7       29.89F
BAY BRIDGE APT MIX PCPN  39  37  93 S3        29.88R
LEONARDTOWN    CLOUDY    43  41  93 SW8       29.91F
DOVER          CLOUDY    41  41 100 SW13      29.87R
GEORGETOWN     LGT RAIN  43  41  93 W10       29.89R FOG
EASTON         CLOUDY    43  43 100 SW7       29.92R
CAMBRIDGE      CLOUDY    45  43  93 SW5       29.88S
SALISBURY      CLOUDY    45  41  86 SW9       29.91S
OCEAN CITY     CLOUDY    44  43  96 W9        29.92S
WALLOPS ISLAND LGT RAIN  42  42 100 NW12      29.96R FOG
ACCOMACK*      CLOUDY    46  45  93 W12G20    29.94R FOG
$$

NCZ012>017-030>032-041300-
NORTH CENTRAL AND EASTERN NORTH CAROLINA

CITY           SKY/WX    TMP DP  RH WIND       PRES   REMARKS
ROANOKE RAPIDS FOG       46  46 100 SW10      29.98S VSB 3/4
RALEIGH        DRZL/FOG  43  41  93 SW7       30.01S VSB 1/8
ELIZABETH CITY CLOUDY    52  52 100 SW14      30.00S FOG
AHOSKIE*       FOG       46  46  99 SW3       29.98F VSB 3/4
EDENTON*       FOG       48  48  99 SW5       30.01R VSB 1/4
CURRITUCK*     CLOUDY    52  50  95 SW10      29.99S FOG
KILL DEVIL HLS CLOUDY    60  60 100 SW13      29.99R
MANTEO         CLOUDY    57  57 100 SW18G25   30.00S FOG
CAPE HATTERAS  FOG       54  54 100 W9        30.05R VSB 1/4
TARBORO*       FOG       48  47  97 SW12G21   30.01F VSB 1/2
GOLDSBORO      FOG       47  47 100 SW7       30.01F VSB 3/4
WASHINGTON     FOG       52  51  99 SW10G16   30.01F VSB 1
GREENVILLE     FOG       50  50 100 SW12G18   30.03R VSB 1
NEW BERN       CLOUDY    64  61  90 SW13G24   30.04S
WILMINGTON     CLOUDY    63  62  97 SW16G23   30.08S
$$

VAZ048-041300-
ELSEWHERE

CITY           SKY/WX    TMP DP  RH WIND       PRES   REMARKS
HARRISBURG PA  CLOUDY    33  31  92 CALM      29.85R FOG
BALTIMORE      CLOUDY    38  36  92 W6        29.86R FOG
ANNAPOLIS      CLOUDY    40  37  89 CALM      29.87R
ANDREWS AFB    CLOUDY    39  39 100 SW8       29.87R
PHILADELPHIA   CLOUDY    35  33  92 SW8       29.86R FOG
HENDERSON NC   FOG       45  43  95 SW14      29.97S VSB 3/4
GREENSBORO     FOG       46  46 100 SW10      29.95F VSB 1/2
ROCKY MOUNT    FOG       47  47 100 SW10      30.00F VSB 3/4
$$

VAZ100-041300-
MARINE

STATION/POSITION TIME  TEMP    WIND        PRES    WAVE   SWELL
                       AIR SEA DIR/SP/G            HT/PER HT/PER
                 (UTC) (F)     (DEG/KT/KT) (MB)    (FT/S) (FT/S)
BRANDYWINE LGT   1200   39 31  250/ 14/ 16 1011.1R
CAPE MAY NJ      1200   37 34  250/  6/  7 1011.3R
LEWES DE         1200   44 30  230/ 11/ 16 1011.3R
15NM E FENWICK I 1200   40 35              1011.8F   5/ 7
OCEAN-CITY-INLET 1200   43 33  260/  9/ 14 1012.5F
WACHAPREAGUE VA  1200   47 36  270/  6/ 14 1013.7R
THOMAS POINT MD  1200   38 32  190/  6/  7 1012.8R
COVE POINT MD    1200   44     240/ 16/ 19 1011.7F
SOLOMONS ISLAND  1200      33                N/A
BISHOPS HEAD MD  1200   39 32  190/  6/  6 1012.8F
CAMBRIDGE MD     1200   45 32  220/  9/ 16 1011.7R
LEWISETTA VA     1200   41 34     CALM     1013.4S
RAPPAHANNOCK LGT 1200          190/  3/  4 1014.2R
STINGRAY PT      1200   44     280/  6/ 10   N/A
YORK RVR RNG VA  1200   45     250/ 17/ 19 1012.6R
YORKTOWN VA      1200   48 34  240/ 16/ 22 1012.7F
DOMINION TERM VA 1200   43     230/ 15/ 19 1013.8S
KIPTOPEKE VA     1200      38  250/ 11/ 15   N/A
CHES BAY BRIDGE  1200   47 33  210/ 13/ 17 1013.4R
CAPE HENRY VA    1200   50     220/ 12/ 20 1012.6R
WILLOUBY STN VA  1200   45     230/ 16/ 17 1014.2R
S CRANEY ISL VA  1200          220/ 15/ 23 1013.9F
CAPE HENRY BUOY  1200      35                N/A     5/ 7
1ST LANDING BUOY 1200   45     230/ 14/ 21 1013.7R
OFFSHORE WE BUOY 1200      36                N/A     6/ 7   2/11
64NM E OF VA BCH 1200   54 56  230/ 14/ 17 1014.8R   6/ 8   5/ 8
DUCK PIER NC     1200   48 35  240/  9/ 12 1015.0F
44100 DUCK FRF   1200      37                N/A     5/ 7
44056 DUCK FRF   1200      35                N/A     4/ 7
OREGON INLET NC  1200   50 43  210/ 15/ 17 1016.4R
HATTERAS NC      1200   56 44  240/ 10/ 14 1017.6R
$$


USA.gov is the U.S. government's official web portal to all federal, state and local government web resources and services.